This is the latest recevied weather packets stored in our database for station/object AB1AU. If no packets are shown the sender has not sent any weather packets the latest 10 day(s).
| Time | Temp. | Humidity | Pressure | Rain* | Wind** | Luminosity | Snow |
|---|---|---|---|---|---|---|---|
| 1777527571 | 6.67° C | 94% | 1013.7 hPa | 0 mm | - | 0 W/m² | - |
| 1777527271 | 6.67° C | 94% | 1014 hPa | 0 mm | - | 0 W/m² | - |
| 1777526967 | 6.67° C | 94% | 1014.1 hPa | 1.78 mm | - | 0 W/m² | - |
| 1777526662 | 6.67° C | 94% | 1014 hPa | 1.78 mm | - | 0 W/m² | - |
| 1777526358 | 6.67° C | 94% | 1014 hPa | 0 mm | - | 0 W/m² | - |
| 1777526054 | 6.67° C | 94% | 1014.1 hPa | 0 mm | - | 0 W/m² | - |
| 1777525750 | 6.67° C | 94% | 1014.2 hPa | 0 mm | - | 0 W/m² | - |
| 1777525448 | 6.67° C | 94% | 1014.2 hPa | 1.27 mm | - | 0 W/m² | - |
| 1777525143 | 6.67° C | 94% | 1014.3 hPa | 1.78 mm | - | 0 W/m² | - |
| 1777524840 | 6.67° C | 94% | 1014.3 hPa | 3.56 mm | - | 0 W/m² | - |
| 1777524538 | 6.67° C | 94% | 1014.4 hPa | 3.05 mm | - | 0 W/m² | - |
| 1777524235 | 6.67° C | 94% | 1014.7 hPa | 3.05 mm | - | 0 W/m² | - |
| 1777523930 | 6.67° C | 94% | 1014.8 hPa | 1.78 mm | - | 0 W/m² | - |
| 1777523628 | 6.67° C | 94% | 1014.6 hPa | 0 mm | - | 0 W/m² | - |
| 1777523324 | 6.67° C | 94% | 1014.8 hPa | 1.27 mm | - | 0 W/m² | - |
| 1777523019 | 6.67° C | 94% | 1014.7 hPa | 0 mm | - | 0 W/m² | - |
| 1777522718 | 6.67° C | 93% | 1014.8 hPa | 1.78 mm | - | 0 W/m² | - |
| 1777522413 | 6.67° C | 94% | 1014.8 hPa | 1.78 mm | - | 0 W/m² | - |
| 1777522111 | 6.67° C | 93% | 1014.7 hPa | 0 mm | - | 0 W/m² | - |
| 1777521807 | 6.67° C | 93% | 1014.8 hPa | 0 mm | - | 0 W/m² | - |
| 1777521503 | 6.67° C | 93% | 1015 hPa | 1.27 mm | - | 0 W/m² | - |
| 1777521201 | 6.67° C | 93% | 1015.1 hPa | 1.27 mm | - | 0 W/m² | - |
| 1777520899 | 6.67° C | 93% | 1015 hPa | 0 mm | - | 0 W/m² | - |
| 1777520595 | 6.67° C | 93% | 1015.1 hPa | 0 mm | - | 0 W/m² | - |
| 1777520292 | 6.67° C | 93% | 1015.1 hPa | 1.78 mm | - | 0 W/m² | - |
* Rain latest hour (hover to see other rain measurements)
** Current wind speed in m/s (hover to see current wind gust speed)